EW1895 Weather Reports


time (UTC)temp
C
wind
direction
speed
KPH
gust
KPH
rain 1hr
cm
rain 24hr
cm
rain mn
cm
humidity
%
barometer
mb
20260902070015 24 340 0.0 0.0 0.00 0.00 0.00 88 1016.6
20260902064514 24 340 0.0 0.0 0.00 0.00 0.00 88 1016.5
20260902063012 24 340 0.0 0.0 0.00 0.00 0.00 89 1016.5
20260902061520 23 340 0.0 0.0 0.00 0.00 0.00 90 1016.6
20260902060010 23 340 0.0 0.0 0.00 0.00 0.00 91 1016.6
20260902054509 23 340 0.0 0.0 0.00 0.00 0.00 90 1016.5
20260902053009 23 340 0.0 0.0 0.00 0.00 0.00 89 1016.4
20260902051509 23 340 0.0 0.0 0.00 0.00 0.00 89 1016.4
20260902050010 24 340 0.0 0.0 0.00 0.00 0.00 88 1016.5
20260902044508 24 340 0.0 0.0 0.00 0.00 0.00 88 1016.5
20260902043007 24 340 0.0 0.0 0.00 0.00 0.00 87 1016.4
20260902041508 25 340 0.0 0.0 0.00 0.00 0.00 86 1016.2
20260902040008 25 340 0.0 0.0 0.00 0.00 0.00 86 1016.2
20260902034507 25 340 0.0 0.0 0.00 0.00 0.00 85 1016.0
20260902033010 25 340 0.0 0.0 0.00 0.00 0.00 84 1015.7
20260902031506 25 340 0.0 0.0 0.00 0.00 0.00 84 1015.7
20260902030006 25 340 0.0 0.0 0.00 0.00 0.00 83 1015.8
20260902024506 26 340 0.0 0.0 0.00 0.00 0.00 83 1015.7
20260902023006 26 340 0.0 0.0 0.00 0.00 0.00 82 1015.8
20260902021512 26 340 0.0 0.0 0.00 0.00 0.00 82 1015.8
20260902020006 26 340 0.0 0.0 0.00 0.00 0.00 81 1015.7
20260902014504 26 340 0.0 0.0 0.00 0.00 0.00 81 1015.6
20260902013004 26 340 0.0 0.0 0.00 0.00 0.00 83 1015.3
20260902011505 26 340 0.0 0.0 0.00 0.00 0.00 82 1015.1
20260902010010 27 340 0.0 0.0 0.00 0.00 0.00 81 1014.9
20260902004512 27 340 0.0 0.0 0.00 0.00 0.00 79 1014.8
20260902003004 28 340 0.0 0.0 0.00 0.00 0.00 78 1014.6
20260902001503 28 340 0.0 0.0 0.00 0.00 0.00 78 1014.6
20260902000003 28 340 0.0 0.0 0.00 0.00 0.00 79 1014.6
20260901234502 29 340 0.0 0.0 0.00 0.00 0.00 77 1014.7
20260901233002 30 340 0.0 0.0 0.00 0.00 0.00 75 1014.6
20260901231502 30 340 0.0 0.0 0.00 0.00 0.00 71 1014.6
20260901230101 31 340 0.0 0.0 0.00 0.00 0.00 67 1014.7
20260901224601 31 340 0.0 0.0 0.00 0.00 0.00 65 1014.9
20260901223059 32 340 0.0 0.0 0.00 0.00 0.00 63 1014.9
20260901221600 32 340 0.0 0.0 0.00 0.00 0.00 62 1015.0
20260901214559 33 340 0.0 0.0 0.00 0.00 0.00 61 1015.1
20260901213058 33 340 0.0 0.0 0.00 0.00 0.00 55 1015.2
20260901211559 33 340 0.0 0.0 0.00 0.00 0.00 60 1015.1
20260901210056 34 340 0.0 0.0 0.00 0.00 0.00 56 1015.2
20260901204555 35 340 0.0 0.0 0.00 0.00 0.00 51 1015.4
20260901203055 36 340 0.0 0.0 0.00 0.00 0.00 51 1015.3
20260901201553 36 340 0.0 0.0 0.00 0.00 0.00 51 1015.5
20260901200106 35 340 0.0 0.0 0.00 0.00 0.00 52 1015.7
20260901194651 35 340 0.0 0.0 0.00 0.00 0.00 53 1015.9
20260901193101 36 340 0.0 0.0 0.00 0.00 0.00 49 1015.9
20260901191549 35 340 0.0 0.0 0.00 0.00 0.00 47 1015.9
20260901190054 36 340 0.0 0.0 0.00 0.00 0.00 49 1016.3
20260901184552 37 340 0.0 0.0 0.00 0.00 0.00 46 1016.3
20260901183044 37 340 0.0 0.0 0.00 0.00 0.00 46 1016.4
20260901181549 37 340 0.0 0.0 0.00 0.00 0.00 45 1016.5
20260901180042 36 340 0.0 0.0 0.00 0.00 0.00 48 1016.6
20260901174542 36 340 0.0 0.0 0.00 0.00 0.00 52 1016.3
20260901173039 36 340 0.0 0.0 0.00 0.00 0.00 44 1016.3
20260901171550 36 340 0.0 0.0 0.00 0.00 0.00 49 1016.3
20260901170033 36 340 0.0 0.0 0.00 0.00 0.00 49 1016.5
20260901164532 36 340 0.0 0.0 0.00 0.00 0.00 49 1016.7
20260901163033 35 340 0.0 0.0 0.00 0.00 0.00 53 1016.9
20260901161527 35 340 0.0 0.0 0.00 0.00 0.00 53 1017.2
20260901160024 34 192 0.0 0.0 0.00 0.00 0.00 55 1017.3
20260901154520 34 192 0.0 0.0 0.00 0.00 0.00 61 1017.4
20260901153018 33 192 0.0 0.0 0.00 0.00 0.00 60 1017.6
20260901151531 32 192 0.0 0.0 0.00 0.00 0.00 63 1017.8
20260901150026 32 192 0.0 0.0 0.00 0.00 0.00 65 1017.8
20260901144521 31 321 0.0 0.0 0.00 0.00 0.00 69 1017.8
20260901143013 30 317 0.0 0.0 0.00 0.00 0.00 75 1017.8
20260901141600 28 317 0.0 0.0 0.00 0.00 0.00 80 1017.8
20260901140107 28 317 0.0 0.0 0.00 0.00 0.00 81 1017.8
20260901134554 27 317 0.0 0.0 0.00 0.00 0.00 85 1017.8
20260901133049 25 317 0.0 0.0 0.00 0.00 0.00 89 1017.9
20260901131545 25 317 0.0 0.0 0.00 0.00 0.00 94 1017.9
20260901130042 23 317 0.0 0.0 0.00 0.00 0.00 96 1018.1
20260901124538 23 317 0.0 0.0 0.00 0.00 0.00 96 1018.1
20260901123135 22 317 0.0 0.0 0.00 0.00 0.00 96 1018.0
20260901121552 22 317 0.0 0.0 0.00 0.00 0.00 96 1018.0
20260901120031 22 317 0.0 0.0 0.00 0.00 0.00 96 1018.1
20260901114530 21 317 0.0 0.0 0.00 0.00 0.00 95 1017.9
20260901113032 21 317 0.0 0.0 0.00 0.00 0.00 95 1017.9
20260901111530 21 317 0.0 0.0 0.00 0.00 0.00 95 1017.8
20260901110034 21 317 0.0 0.0 0.00 0.00 0.00 95 1017.6
20260901104532 21 317 0.0 0.0 0.00 0.00 0.00 95 1017.4
20260901103029 21 317 0.0 0.0 0.00 0.00 0.00 95 1017.1
20260901101529 21 317 0.0 0.0 0.00 0.00 0.00 95 1017.2
20260901100026 21 317 0.0 0.0 0.00 0.00 0.00 95 1017.4
20260901094526 21 317 0.0 0.0 0.00 0.00 0.00 95 1017.5
20260901093024 21 317 0.0 0.0 0.00 0.00 0.00 95 1017.4
20260901091524 22 317 0.0 0.0 0.00 0.00 0.00 95 1017.3
20260901090023 22 317 0.0 0.0 0.00 0.00 0.00 95 1017.4
20260901084522 22 317 0.0 0.0 0.00 0.00 0.00 95 1017.5
20260901083026 22 317 0.0 0.0 0.00 0.00 0.00 95 1017.5
20260901081522 22 317 0.0 0.0 0.00 0.00 0.00 95 1017.5
20260901080022 22 317 0.0 0.0 0.00 0.00 0.00 95 1017.4
20260901074520 21 317 0.0 0.0 0.00 0.00 0.00 94 1017.5
20260901073118 21 317 0.0 0.0 0.00 0.00 0.00 94 1017.4
20260901071525 22 317 0.0 0.0 0.00 0.00 0.00 94 1017.5